Regional Weather Roundup
Issued by NWS

Home | Current Version | Previous Version | Text Only | Print | Product List | Glossary On
Versions: 1 2 3 4 5 6 7 8 9 10 11 12 13 14 15 16 17 18 19 20 21 22 23 24 25 26 27 28 29 30 31 32 33 34 35 36 37 38 39 40 41 42 43 44 45 46 47 48 49 50
000
ASUS42 KKEY 301010
RWRKEY

FLORIDA REGIONAL WEATHER ROUNDUP FOR THE FLORIDA KEYS
NATIONAL WEATHER SERVICE KEY WEST FLORIDA
500 AM EST FRI JAN 30 2015

...SOUTH FLORIDA AND THE KEYS...

CITY           SKY/WX    TMP DP  RH WIND       PRES   REMARKS
FORT MYERS     CLEAR     50  47  89 CALM      30.18S
SW REGIONAL AP CLEAR     50  47  89 CALM      30.18F
NAPLES         CLEAR     53  50  89 CALM      30.18S
MIAMI          MOCLDY    61  54  77 NW3       30.17S
WEST KENDALL   CLOUDY    58  54  86 NW6       30.16F
HOMESTEAD      CLOUDY    59  52  78 NW8       30.16S
MARATHON       MOCLDY    64  57  78 N8        30.15R
BOCA CHICA NAS CLEAR     64  56  75 N9        30.15S
KEY WEST INTL  CLEAR     63  56  78 N8        30.16R

...INTERNATIONAL WEATHER...

CITY           SKY/WX    TMP DP  RH WIND       PRES   REMARKS
NASSAU BAHAMAS NOT AVBL
CANCUN MEXICO  CLEAR     59  57  94 CALM      30.12S
COZUMEL MEXICO PTCLDY    64  61  88 N6        30.12S

ADJACENT COASTAL WATERS...

STATION/POSITION TIME  SKY/WX   TEMP    WIND        PRES    WAVE
                                AIR SEA DIR/SP/G            HT/PER
                 (UTC)          (F)     (DEG/KT/KT) (MB)    (FT/S)
PULASKI SHOAL LI NOT AVBL
SAND KEY         NOT AVBL
SOMBRERO KEY     NOT AVBL
LONG KEY         NOT AVBL
MOLASSES REEF    NOT AVBL
FOWEY ROCKS      NOT AVBL
Buoy 42080       NOT AVBL

$$



USA.gov is the U.S. government's official web portal to all federal, state and local government web resources and services.